[[{"header":{"parameterUnit":"m.s-1","parameterCategory":1,"la1":30.2991,"la2":30.254,"lo1":-89.0895,"lo2":-89.0444,"dy":0.0017,"dx":0.0017,"nx":28,"ny":28,"refTime":"2025-02-13T03:00:00:Z","depth":0,"parameterNumber":2,"parameterNumberName":"U-component_of_WINDS"},"data":[0,0,0,0,0,0,0,0,0,0,0,0,0,0,0,0,0,0,0,0,0,0,0,0,0,0,0,0,0,0,0,0,0,0,0,0,0,0,0,0,0,0,0,0,0,0,0,0,0,0,0,0,0,0,0,0,0,0,-3.5166,-3.5166,0,-3.5218,-3.5218,-3.5219,-3.5135,-3.5132,-3.5129,-3.5126,-3.518,-3.5184,-3.5188,0,0,0,0,0,0,0,0,0,0,0,0,0,-3.4993,-3.4997,-3.5166,-3.5166,-3.5167,-3.5218,-3.5218,-3.5219,-3.5135,-3.5132,-3.5128,-3.5125,-3.5178,-3.5183,-3.5188,0,0,0,0,0,0,0,0,0,0,0,0,0,-3.5059,-3.4998,-3.5166,-3.5131,-3.5129,-3.5218,-3.5218,-3.5219,-3.5136,-3.5132,-3.5127,-3.5123,-3.5177,-3.5183,-3.5189,-3.5314,0,0,-3.5208,-3.521,0,0,0,0,0,0,0,0,-3.5055,-3.5065,-3.5136,-3.5134,-3.5131,-3.5165,-3.5177,-3.5251,-3.5137,-3.5133,-3.5126,-3.5121,-3.5178,-3.5184,-3.5204,-3.5316,-3.5319,-3.5208,-3.5212,-3.5215,-3.5216,0,0,0,0,0,0,0,-3.5051,-3.5063,-3.5186,-3.5137,-3.5134,-3.5113,-3.5118,-3.5191,-3.518,-3.5133,-3.5127,-3.5135,-3.5176,-3.5198,-3.5204,-3.5319,-3.5208,-3.5214,-3.5217,-3.522,-3.5537,-3.5541,0,0,0,0,0,0,-3.5051,-3.5059,-3.5185,-3.5188,-3.5082,-3.512,-3.5125,-3.5159,-3.5179,-3.5177,-3.5138,-3.513,-3.5189,-3.5197,-3.5206,-3.5354,-3.5215,-3.522,-3.5224,-3.5532,-3.5538,-3.5543,0,0,0,0,0,0,-3.5047,-3.5063,-3.5183,-3.5122,-3.5136,-3.5127,-3.5166,-3.5162,-3.5183,-3.5182,-3.518,-3.5162,-3.5186,-3.5197,-3.5287,-3.5354,-3.5223,-3.5229,-3.5526,-3.5534,-3.554,-3.565,0,0,0,0,0,0,-3.5043,-3.5062,-3.511,-3.5124,-3.5139,-3.5264,-3.517,-3.5166,-3.5194,-3.5185,-3.5204,-3.5203,-3.5184,-3.5279,-3.5294,-3.536,-3.5234,-3.552,-3.553,-3.5538,-3.5641,-3.566,-3.5677,0,0,0,0,0,-3.5037,-3.5139,-3.5113,-3.5128,-3.5199,-3.5268,-3.5277,-3.5253,-3.52,-3.5248,-3.5247,-3.5203,-3.5344,-3.5289,-3.5305,-3.5374,-3.5516,-3.5527,-3.5537,-3.5633,-3.5657,-3.5677,0,0,0,0,0,0,-3.5133,-3.514,-3.5111,-3.5221,-3.5245,-3.5254,-3.5314,-3.5279,-3.5318,-3.5307,-3.5275,-3.528,-3.5377,-3.5384,-3.5322,-3.5496,-3.5421,-3.5436,-3.5488,-3.5511,-3.5529,-3.5526,-3.5239,0,0,0,0,0,-3.5167,-3.5223,-3.5226,-3.5322,-3.5335,-3.5323,-3.5352,-3.5331,-3.5354,-3.5364,-3.5369,-3.5394,-3.5443,-3.5477,-3.5523,-3.564,-3.5644,-3.5696,-3.5714,-3.5729,-3.5743,-3.5805,-3.5829,-3.5578,-3.5577,-3.5577,0,0,-3.5238,-3.5248,-3.5286,-3.5342,-3.5358,-3.5416,-3.5332,-3.5397,-3.544,-3.5374,-3.546,-3.5465,-3.5489,-3.5594,-3.564,-3.5603,-3.5812,-3.5743,-3.5755,-3.576,-3.5819,-3.5842,-3.5864,-3.5585,-3.5583,-3.5582,0,0,-3.5397,-3.5411,-3.5493,-3.551,-3.5535,-3.5526,-3.5545,-3.556,-3.5561,-3.5646,-3.5597,-3.5647,-3.5734,-3.5754,-3.5775,-3.594,-3.5901,-3.5956,-3.6052,-3.6113,-3.6133,-3.615,-3.621,-3.6232,-3.5969,-3.5969,-3.5969,0,-3.5482,-3.5569,-3.5539,-3.5608,-3.5634,-3.5576,-3.5658,-3.5676,-3.5716,-3.5735,-3.5692,-3.5799,-3.5811,-3.592,-3.596,-3.5979,-3.6001,-3.5955,-3.6132,-3.615,-3.6165,-3.6222,-3.6245,-3.5976,-3.5975,-3.5974,-3.5974,0,-3.5673,-3.5733,-3.5796,-3.5835,-3.5868,-3.5944,-3.5925,-3.5962,-3.5937,-3.5932,-3.6019,-3.6032,-3.6079,-3.6103,-3.608,-3.6208,-3.6184,-3.6138,-3.6062,-3.6197,-3.6249,-3.6271,-3.5985,-3.5983,-3.5981,-3.5979,0,0,-3.5897,-3.5917,-3.5941,-3.5958,-3.598,-3.6026,-3.6099,-3.6145,-3.6177,-3.6205,-3.6265,-3.6339,-3.6295,-3.632,-3.6298,-3.6352,-3.6482,-3.6298,-3.6298,-3.6333,-3.6625,-3.6662,-3.6687,-3.6455,-3.6459,-3.6463,-3.6624,0,-3.6056,-3.6182,-3.6156,-3.6279,-3.6335,-3.6279,-3.6342,-3.6362,-3.6359,-3.6405,-3.6401,-3.6455,-3.6393,-3.6407,-3.6457,-3.6456,-3.6541,-3.6444,-3.6512,-3.6515,-3.6509,-3.6715,-3.6754,-3.6905,-3.6644,-3.6647,-3.665,0,-3.626,-3.6296,-3.6424,-3.6437,-3.646,-3.6517,-3.6557,-3.6601,-3.6623,-3.6617,-3.6643,-3.6611,-3.6682,-3.6604,-3.6702,-3.6637,-3.6662,-3.6666,-3.6671,-3.6678,-3.6592,-3.6729,-3.6952,-3.6976,-3.6682,-3.6679,-3.6677,0,-3.6412,-3.6492,-3.6579,-3.6595,-3.6612,-3.6654,-3.6663,-3.668,-3.6709,-3.6743,-3.6762,-3.6804,-3.6827,-3.6861,-3.684,-3.6785,-3.6942,-3.6862,-3.6939,-3.694,-3.6976,-3.6975,-3.7209,-3.6991,-3.699,-3.699,-3.6989,0,-3.6594,-3.6675,-3.6648,-3.6702,-3.679,-3.676,-3.6848,-3.6851,-3.6866,-3.6919,-3.6872,-3.6923,-3.6892,-3.694,-3.6924,-3.7008,-3.7019,-3.7016,-3.7011,-3.7021,-3.7022,-3.7039,-3.7029,-3.6996,-3.6994,-3.6993,-3.6992,0,-3.678,-3.6765,-3.6856,-3.6864,-3.6868,-3.6934,-3.694,-3.699,-3.6982,-3.705,-3.7064,-3.7053,-3.7107,-3.7089,-3.7147,-3.7136,-3.7243,-3.7223,-3.7236,-3.7232,-3.731,-3.7303,-3.7565,-3.7598,-3.7357,-3.7359,-3.7361,0,-3.6898,-3.6959,-3.6974,-3.7006,-3.7018,-3.7071,-3.71,-3.7071,-3.7104,-3.7132,-3.7179,-3.7228,-3.7267,-3.7356,-3.7352,-3.7396,-3.7378,-3.7467,-3.7385,-3.7393,-3.7381,-3.7378,-3.7385,-3.7484,-3.7487,-3.7489,-3.7491,0,-3.711,-3.7099,-3.7143,-3.7185,-3.7221,-3.7252,-3.7279,-3.7308,-3.728,-3.7319,-3.7373,-3.7403,-3.7462,-3.7512,-3.7551,-3.756,-3.7522,-3.7516,-3.7537,-3.7549,-3.7554,-3.7553,-3.7282,-3.7511,-3.7509,-3.7508,-3.7507,-3.7506,-3.7267,-3.7318,-3.7337,-3.7387,-3.7404,-3.743,-3.7477,-3.7475,-3.752,-3.7566,-3.7545,-3.7609,-3.7627,-3.7676,-3.769,-3.7739,-3.7704,-3.7734,-3.7741,-3.775,-3.776,-3.7545,-3.7745,-3.7745,-3.7744,-3.7744,-3.7743,0,-3.7477,-3.7486,-3.7532,-3.7571,-3.7611,-3.757,-3.7597,-3.7633,-3.7689,-3.771,-3.7748,-3.7811,-3.7859,-3.7858,-3.7903,-3.7942,-3.7925,-3.7954,-3.7952,-3.7955,-3.7788,-3.7766,-3.7967,-3.7967,-3.7967,-3.7967,-3.7967,-3.7967,-3.7591,-3.7677,-3.7668,-3.7761,-3.7768,-3.783,-3.7849,-3.7873,-3.7889,-3.7961,-3.8,-3.7999,-3.8012,-3.8056,-3.8098,-3.8096,-3.8116,-3.8152,-3.8144,-3.7989,-3.7967,-3.7945,-3.7925,-3.8156,-3.8156,-3.8307,-3.8309,-3.831]},{"header":{"parameterUnit":"m.s-1","parameterCategory":1,"la1":30.2991,"la2":30.254,"lo1":-89.0895,"lo2":-89.0444,"dy":0.0017,"dx":0.0017,"nx":28,"ny":28,"refTime":"2025-02-13T03:00:00:Z","depth":0,"parameterNumber":3,"parameterNumberName":"V-component_of_WINDS"},"data":[0,0,0,0,0,0,0,0,0,0,0,0,0,0,0,0,0,0,0,0,0,0,0,0,0,0,0,0,0,0,0,0,0,0,0,0,0,0,0,0,0,0,0,0,0,0,0,0,0,0,0,0,0,0,0,0,0,0,-7.6941,-7.6943,0,-7.7064,-7.7065,-7.7067,-7.6984,-7.698,-7.6976,-7.6973,-7.7092,-7.7099,-7.7105,0,0,0,0,0,0,0,0,0,0,0,0,0,-7.6628,-7.6634,-7.6941,-7.6943,-7.6944,-7.7064,-7.7066,-7.7067,-7.6984,-7.698,-7.6975,-7.6971,-7.709,-7.7098,-7.7106,0,0,0,0,0,0,0,0,0,0,0,0,0,-7.6758,-7.6636,-7.6941,-7.6917,-7.6917,-7.7064,-7.7066,-7.7068,-7.6985,-7.698,-7.6974,-7.6969,-7.7087,-7.7097,-7.7107,-7.7282,0,0,-7.7138,-7.7142,0,0,0,0,0,0,0,0,-7.6751,-7.677,-7.6919,-7.6919,-7.6919,-7.7003,-7.6999,-7.7139,-7.6987,-7.6959,-7.6972,-7.6966,-7.7067,-7.7078,-7.7113,-7.7288,-7.7293,-7.7139,-7.7145,-7.7149,-7.7152,0,0,0,0,0,0,0,-7.6742,-7.6764,-7.6989,-7.6922,-7.6921,-7.6898,-7.6911,-7.7025,-7.7043,-7.6961,-7.6955,-7.6971,-7.7065,-7.7104,-7.7115,-7.7295,-7.7138,-7.7147,-7.7153,-7.7157,-7.7617,-7.7623,0,0,0,0,0,0,-7.6736,-7.6757,-7.6986,-7.6993,-7.6819,-7.6909,-7.6922,-7.6981,-7.7041,-7.7045,-7.6976,-7.6967,-7.7089,-7.7104,-7.7119,-7.7328,-7.7149,-7.7158,-7.7164,-7.7611,-7.7618,-7.7625,0,0,0,0,0,0,-7.673,-7.6757,-7.6981,-7.6874,-7.6901,-7.692,-7.6987,-7.6987,-7.7025,-7.7053,-7.7055,-7.7013,-7.7086,-7.7105,-7.7242,-7.7331,-7.7163,-7.7172,-7.7603,-7.7613,-7.7622,-7.7746,0,0,0,0,0,0,-7.6721,-7.6755,-7.6824,-7.6876,-7.6907,-7.7104,-7.6992,-7.6993,-7.7044,-7.7033,-7.7088,-7.7091,-7.7083,-7.7228,-7.7252,-7.7341,-7.718,-7.7596,-7.7608,-7.7619,-7.7734,-7.7759,-7.7779,0,0,0,0,0,-7.671,-7.6853,-7.6828,-7.6856,-7.6993,-7.711,-7.7127,-7.7116,-7.7051,-7.7119,-7.7136,-7.7089,-7.7317,-7.7243,-7.7269,-7.7363,-7.759,-7.7604,-7.7618,-7.7724,-7.7754,-7.7779,0,0,0,0,0,0,-7.6809,-7.6859,-7.6832,-7.6997,-7.705,-7.7095,-7.7181,-7.7148,-7.7218,-7.7205,-7.7186,-7.7199,-7.7343,-7.7366,-7.7283,-7.7534,-7.7443,-7.7463,-7.7515,-7.7543,-7.7565,-7.7556,-7.7188,0,0,0,0,0,-7.685,-7.6943,-7.6981,-7.7122,-7.715,-7.7161,-7.7212,-7.7199,-7.7252,-7.7273,-7.73,-7.7352,-7.7435,-7.749,-7.7568,-7.7737,-7.7747,-7.7814,-7.7837,-7.7855,-7.7872,-7.7962,-7.7992,-7.7671,-7.767,-7.767,0,0,-7.6935,-7.6975,-7.7034,-7.7143,-7.7183,-7.7277,-7.7181,-7.7284,-7.7353,-7.7288,-7.742,-7.7442,-7.7498,-7.7652,-7.7721,-7.7675,-7.7963,-7.7873,-7.7887,-7.7895,-7.798,-7.801,-7.8037,-7.768,-7.7678,-7.7677,0,0,-7.714,-7.7179,-7.7301,-7.7343,-7.7405,-7.7411,-7.744,-7.7491,-7.7504,-7.7636,-7.7589,-7.7669,-7.7813,-7.7854,-7.7895,-7.8114,-7.8073,-7.8139,-7.8257,-7.8345,-7.837,-7.8392,-7.847,-7.8498,-7.8156,-7.8157,-7.8157,0,-7.7238,-7.738,-7.7367,-7.7475,-7.7524,-7.7471,-7.7593,-7.7633,-7.7716,-7.775,-7.7699,-7.7877,-7.7911,-7.8074,-7.8127,-7.8162,-7.8193,-7.8133,-7.8368,-7.839,-7.8411,-7.8484,-7.8514,-7.8164,-7.8163,-7.8163,-7.8162,0,-7.7497,-7.7596,-7.7687,-7.7771,-7.783,-7.7944,-7.7946,-7.8007,-7.7988,-7.7999,-7.8133,-7.8172,-7.8257,-7.8294,-7.8276,-7.8454,-7.8424,-7.8371,-7.8278,-7.845,-7.8518,-7.8546,-7.8175,-7.8173,-7.817,-7.8168,0,0,-7.7768,-7.7843,-7.7877,-7.7914,-7.7978,-7.8053,-7.8163,-7.8248,-7.83,-7.8358,-7.845,-7.8572,-7.8523,-7.8569,-7.8555,-7.8632,-7.8802,-7.8569,-7.857,-7.8611,-7.8999,-7.9039,-7.9072,-7.8775,-7.8781,-7.8785,-7.8994,0,-7.7975,-7.8172,-7.8163,-7.8345,-7.8436,-7.8386,-7.8482,-7.853,-7.8543,-7.862,-7.8632,-7.872,-7.8649,-7.8676,-7.875,-7.8766,-7.888,-7.8751,-7.8858,-7.8862,-7.8846,-7.9108,-7.915,-7.9346,-7.9021,-7.9025,-7.9029,0,-7.8244,-7.8314,-7.8507,-7.8556,-7.8594,-7.8681,-7.8757,-7.8832,-7.8884,-7.8888,-7.8939,-7.8912,-7.9022,-7.8926,-7.9076,-7.8988,-7.9031,-7.9046,-7.9053,-7.9062,-7.8956,-7.9124,-7.9408,-7.9437,-7.9071,-7.9068,-7.9065,0,-7.8422,-7.8564,-7.8697,-7.873,-7.8792,-7.8854,-7.8882,-7.8929,-7.898,-7.9046,-7.9078,-7.9155,-7.9197,-7.9256,-7.925,-7.9181,-7.9402,-7.9306,-7.9406,-7.9407,-7.9455,-7.9452,-7.975,-7.9483,-7.9483,-7.9482,-7.9482,0,-7.8655,-7.8775,-7.8778,-7.886,-7.8992,-7.8979,-7.9109,-7.9129,-7.9172,-7.9255,-7.9215,-7.9294,-7.9281,-7.9359,-7.9354,-7.9478,-7.9497,-7.9502,-7.9499,-7.9506,-7.9505,-7.9534,-7.952,-7.949,-7.9488,-7.9487,-7.9485,0,-7.8876,-7.8884,-7.9026,-7.9072,-7.9087,-7.9182,-7.922,-7.9297,-7.9306,-7.9412,-7.9435,-7.9449,-7.9539,-7.9538,-7.964,-7.9636,-7.9788,-7.977,-7.9772,-7.9768,-7.9868,-7.9859,-8.0195,-8.0238,-7.9943,-7.9946,-7.9948,0,-7.9025,-7.9116,-7.9173,-7.9227,-7.9259,-7.9347,-7.9399,-7.9389,-7.9445,-7.9511,-7.9579,-7.9665,-7.9734,-7.9879,-7.9896,-7.9973,-7.9956,-8.0068,-7.9967,-7.9971,-7.9957,-7.9952,-7.9961,-8.0088,-8.0092,-8.0094,-8.0096,0,-7.9287,-7.9286,-7.9365,-7.9445,-7.9509,-7.957,-7.9627,-7.9673,-7.9668,-7.9733,-7.9825,-7.9878,-7.9982,-8.0068,-8.0142,-8.0168,-8.0132,-8.0128,-8.0155,-8.0163,-8.016,-8.0163,-7.9826,-8.0121,-8.0118,-8.0116,-8.0115,-8.0114,-7.9476,-7.9555,-7.9607,-7.9695,-7.9737,-7.9791,-7.9865,-7.9884,-7.9962,-8.0047,-8.0036,-8.0138,-8.0186,-8.0283,-8.0315,-8.0393,-8.0353,-8.0393,-8.0403,-8.0413,-8.0424,-8.0148,-8.0406,-8.0406,-8.0405,-8.0404,-8.0404,0,-7.9737,-7.9768,-7.9849,-7.9931,-8.0,-7.9961,-8.0022,-8.0081,-8.0173,-8.0222,-8.029,-8.0395,-8.0478,-8.0502,-8.0581,-8.0639,-8.0624,-8.066,-8.0655,-8.0662,-8.0455,-8.0424,-8.067,-8.067,-8.067,-8.067,-8.067,-8.067,-7.988,-8.0011,-8.0016,-8.0166,-8.0195,-8.0297,-8.0335,-8.0384,-8.0423,-8.0543,-8.0612,-8.0628,-8.0666,-8.0747,-8.082,-8.0825,-8.0855,-8.0898,-8.0896,-8.0703,-8.0676,-8.0651,-8.0621,-8.0905,-8.0905,-8.1096,-8.1098,-8.1099]}]]